Regional Weather Roundup
Issued by NWS

Home | Current Version | Previous Version | Graphics & Text | Print | Product List | Glossary Off
Versions: 1 2 3 4 5 6 7 8 9 10 11 12 13 14 15 16 17 18 19 20 21 22 23 24 25 26 27 28 29 30 31 32 33 34 35 36 37 38 39 40 41 42 43 44 45 46 47 48 49 50

000
ASUS43 KOAX 232210
RWRNE

WEATHER ROUNDUP FOR NEBRASKA
NATIONAL WEATHER SERVICE OMAHA NE
500 PM CDT MON OCT 23 2017

NOTES: SATELLITE DATA IS BEING USED TO AUGMENT CLOUD COVER ABOVE
       12000 FEET.
       "FAIR" INDICATES FEW OR NO CLOUDS BELOW 12,000 FEET WITH NO
       SIGNIFICANT WEATHER AND/OR OBSTRUCTIONS TO VISIBILITY.


NEZ001>004-019>022-054>056-232300-
NEBRASKA PANHANDLE

CITY           SKY/WX    TMP DP  RH WIND       PRES   REMARKS
SCOTTSBLUFF    PTSUNNY   57  18  21 NW28G35   30.38R
ALLIANCE       MOSUNNY   55  15  20 N33G44    30.34R
CHADRON        SUNNY     58  14  17 NW28G38   30.35R
GORDON         FAIR      56  22  25 N29G39    30.31R
KIMBALL        MOSUNNY   52  18  26 NW25G37   30.39S
SIDNEY         MOSUNNY   56  17  21 N31G41    30.37R
$$

NEZ057>060-069>072-079>082-232300-
SOUTHWEST NEBRASKA

CITY           SKY/WX    TMP DP  RH WIND       PRES   REMARKS
NORTH PLATTE   MOSUNNY   60  17  18 NW26G40   30.26R
IMPERIAL       SUNNY     60  16  18 N33G48    30.31R
LEXINGTON      SUNNY     61  23  23 NW28G38   30.23R
MCCOOK         SUNNY     63  18  17 N30G39    30.25R
OGALLALA       SUNNY     60  17  19 NW29G40   30.31S
$$

NEZ005>010-023>029-035>040-094-232300-
NORTH CENTRAL NEBRASKA

CITY           SKY/WX    TMP DP  RH WIND       PRES   REMARKS
VALENTINE      MOSUNNY   59  23  25 NW24G46   30.22R
AINSWORTH      PTSUNNY   56  29  35 N28G33    30.21S
BROKEN BOW     PTSUNNY   56  29  35 N24G36    30.22R
O`NEILL        MOSUNNY   55  31  41 NW23G38   30.16R
ORD            MOSUNNY   59  28  30 NW33G44   30.16R
THEDFORD       PTSUNNY   60  24  25 NW29G43   30.25R
$$

NEZ041-046>049-061>064-073>077-083>087-232300-
SOUTH CENTRAL NEBRASKA

CITY           SKY/WX    TMP DP  RH WIND       PRES   REMARKS
GRAND ISLAND   PTSUNNY   61  28  28 NW32G49   30.16R
AURORA         MOSUNNY   60  25  27 NW25G41   30.14R
HASTINGS       SUNNY     60  24  25 NW35G47   30.17R
HEBRON         PTSUNNY   63  26  24 N21G36    30.12R
HOLDREGE       SUNNY     60  25  26 N25G35    30.20S
KEARNEY        SUNNY     59  26  28 N30G39    30.19R
YORK           MOSUNNY   59  28  31 N23G33    30.10R
$$

NEZ011>018-030>034-042>045-232300-
NORTHEAST NEBRASKA

CITY           SKY/WX    TMP DP  RH WIND       PRES   REMARKS
NORFOLK        MOSUNNY   57  31  37 N26G40    30.08R
ALBION         PTSUNNY   57  32  39 NW29G43   30.14R
BLAIR          CLOUDY    58  33  39 NW30G44   30.03R
COLUMBUS       PTSUNNY   60  30  32 NW30G40   30.08R
FREMONT        PTSUNNY   58  31  34 NW22G37   30.07R
TEKAMAH        PTSUNNY   57  33  40 NW20G39   30.04R
WAYNE          MOSUNNY   55  26  33 NW26G33   30.08R
$$

NEZ050>053-065>068-078-088>093-232300-
SOUTHEAST NEBRASKA

CITY           SKY/WX    TMP DP  RH WIND       PRES   REMARKS
LINCOLN        MOSUNNY   63  28  26 MISG      30.07R
OMAHA EPPLEY   CLOUDY    59  32  36 NW31G40   30.01R
BEATRICE       MOSUNNY   62  29  28 NW30G44   30.08R
FALLS CITY     MOSUNNY   63  28  26 NW28G47   30.00R
NEBRASKA CITY  PTSUNNY   61  32  33 NW23G40   30.02R
PLATTSMOUTH    CLOUDY    60  31  33 NW31G41   30.01R HAZE
$$

NEZ044-045-051>053-067-232300-
OMAHA AREA

CITY           SKY/WX    TMP DP  RH WIND       PRES   REMARKS
OMAHA EPPLEY   CLOUDY    59  32  36 NW31G40   30.01R
BLAIR          CLOUDY    58  33  39 NW30G44   30.03R
FREMONT        PTSUNNY   58  31  34 NW22G37   30.07R
MILLARD        CLOUDY    61  32  33 NW20G36   30.03R
OFFUTT AFB     CLOUDY    60  30  32 NW30G38   30.02R
PLATTSMOUTH    CLOUDY    60  31  33 NW31G41   30.01R HAZE
WAHOO          FAIR      61  28  29 NW21G47   30.06R
$$




USA.gov is the U.S. government's official web portal to all federal, state and local government web resources and services.